Time,TemperatureF,DewpointF,PressureIn,WindDirection,WindDirectionDegrees,WindSpeedMPH,WindSpeedGustMPH,Humidity,HourlyPrecipIn,Conditions,Clouds,dailyrainin,SolarRadiationWatts/m^2,SoftwareType,DateUTC
2013-04-17 00:02:00,27.0,23.0,-100.00,North,2,1.0,2.0,83,0.00,,,0.00,0.000000,,2013-04-17 05:02:00,
2013-04-17 00:32:00,29.0,26.0,-100.00,NE,51,4.0,6.0,87,0.00,,,0.00,0.000000,,2013-04-17 05:32:00,
2013-04-17 00:43:00,29.0,26.0,-100.00,NE,51,4.0,6.0,87,0.00,,,0.00,0.000000,,2013-04-17 05:43:00,
2013-04-17 00:52:00,29.0,26.0,-100.00,NE,51,4.0,6.0,87,0.00,,,0.00,0.000000,,2013-04-17 05:52:00,
2013-04-17 01:02:00,29.0,26.0,-100.00,NE,51,4.0,6.0,87,0.00,,,0.00,0.000000,,2013-04-17 06:02:00,
2013-04-17 01:32:00,32.0,23.0,-100.00,ENE,58,3.0,6.0,68,0.00,,,0.00,0.000000,,2013-04-17 06:32:00,
2013-04-17 01:42:00,32.0,23.0,-100.00,ENE,58,3.0,6.0,68,0.00,,,0.00,0.000000,,2013-04-17 06:42:00,
2013-04-17 01:52:00,32.0,23.0,-100.00,ENE,58,3.0,6.0,68,0.00,,,0.00,0.000000,,2013-04-17 06:52:00,
2013-04-17 02:02:00,32.0,23.0,-100.00,ENE,58,3.0,6.0,68,0.00,,,0.00,0.000000,,2013-04-17 07:02:00,
2013-04-17 02:32:00,28.0,21.0,-100.00,NNE,30,3.0,5.0,75,0.00,,,0.00,0.000000,,2013-04-17 07:32:00,
2013-04-17 02:42:00,28.0,21.0,-100.00,NNE,30,3.0,5.0,75,0.00,,,0.00,0.000000,,2013-04-17 07:42:00,
2013-04-17 02:52:00,28.0,21.0,-100.00,NNE,30,3.0,5.0,75,0.00,,,0.00,0.000000,,2013-04-17 07:52:00,
2013-04-17 03:02:00,28.0,21.0,-100.00,NNE,30,3.0,5.0,75,0.00,,,0.00,0.000000,,2013-04-17 08:02:00,
2013-04-17 03:33:00,30.0,23.0,-100.00,NE,42,3.0,5.0,76,0.00,,,-99.99,0.000000,,2013-04-17 08:33:00,
2013-04-17 03:42:00,30.0,23.0,-100.00,NE,42,3.0,5.0,76,0.00,,,-99.99,0.000000,,2013-04-17 08:42:00,
2013-04-17 03:52:00,30.0,23.0,-100.00,NE,42,3.0,5.0,76,0.00,,,-99.99,0.000000,,2013-04-17 08:52:00,
2013-04-17 04:02:00,30.0,23.0,-100.00,NE,42,3.0,5.0,76,0.00,,,-99.99,0.000000,,2013-04-17 09:02:00,
2013-04-17 04:33:00,30.0,22.0,-100.00,NE,54,3.0,6.0,73,0.00,,,0.00,0.000000,,2013-04-17 09:33:00,
2013-04-17 04:42:00,30.0,22.0,-100.00,NE,54,3.0,6.0,73,0.00,,,0.00,0.000000,,2013-04-17 09:42:00,
2013-04-17 04:52:00,30.0,22.0,-100.00,NE,54,3.0,6.0,73,0.00,,,0.00,0.000000,,2013-04-17 09:52:00,
2013-04-17 05:02:00,30.0,22.0,-100.00,NE,54,3.0,6.0,73,0.00,,,0.00,0.000000,,2013-04-17 10:02:00,
2013-04-17 05:33:00,31.0,23.0,-100.00,NE,51,4.0,7.0,73,0.00,,,0.00,0.000000,,2013-04-17 10:33:00,
2013-04-17 05:43:00,31.0,23.0,-100.00,NE,51,4.0,7.0,73,0.00,,,0.00,0.000000,,2013-04-17 10:43:00,
2013-04-17 05:53:00,31.0,23.0,-100.00,NE,51,4.0,7.0,73,0.00,,,0.00,0.000000,,2013-04-17 10:53:00,
2013-04-17 06:02:00,31.0,23.0,-100.00,NE,51,4.0,7.0,73,0.00,,,0.00,0.000000,,2013-04-17 11:02:00,
2013-04-17 06:32:00,32.0,24.0,-100.00,NE,52,7.0,12.0,71,0.00,,,0.00,0.000000,,2013-04-17 11:32:00,
2013-04-17 06:42:00,32.0,24.0,-100.00,NE,52,7.0,12.0,71,0.00,,,0.00,0.000000,,2013-04-17 11:42:00,
2013-04-17 06:52:00,32.0,24.0,-100.00,NE,52,7.0,12.0,71,0.00,,,0.00,0.000000,,2013-04-17 11:52:00,
2013-04-17 07:02:00,32.0,24.0,-100.00,NE,52,7.0,12.0,71,0.00,,,0.00,0.000000,,2013-04-17 12:02:00,
2013-04-17 07:32:00,33.0,24.0,-100.00,ENE,63,7.0,12.0,69,0.00,,,0.00,8.000000,,2013-04-17 12:32:00,
2013-04-17 07:42:00,33.0,24.0,-100.00,ENE,63,7.0,12.0,69,0.00,,,0.00,8.000000,,2013-04-17 12:42:00,
2013-04-17 07:52:00,33.0,24.0,-100.00,ENE,63,7.0,12.0,69,0.00,,,0.00,8.000000,,2013-04-17 12:52:00,
2013-04-17 08:02:00,33.0,24.0,-100.00,ENE,63,7.0,12.0,69,0.00,,,0.00,8.000000,,2013-04-17 13:02:00,
2013-04-17 08:32:00,34.0,25.0,-100.00,East,84,5.0,11.0,69,0.00,,,0.00,28.000000,,2013-04-17 13:32:00,
2013-04-17 08:42:00,34.0,25.0,-100.00,East,84,5.0,11.0,69,0.00,,,0.00,28.000000,,2013-04-17 13:42:00,
2013-04-17 08:52:00,34.0,25.0,-100.00,East,84,5.0,11.0,69,0.00,,,0.00,28.000000,,2013-04-17 13:52:00,
2013-04-17 09:02:00,34.0,25.0,-100.00,East,84,5.0,11.0,69,0.00,,,0.00,28.000000,,2013-04-17 14:02:00,
2013-04-17 09:32:00,36.0,26.0,-100.00,ENE,71,8.0,12.0,66,0.00,,,0.00,112.000000,,2013-04-17 14:32:00,
2013-04-17 09:43:00,36.0,26.0,-100.00,ENE,71,8.0,12.0,66,0.00,,,0.00,112.000000,,2013-04-17 14:43:00,
2013-04-17 09:52:00,36.0,26.0,-100.00,ENE,71,8.0,12.0,66,0.00,,,0.00,112.000000,,2013-04-17 14:52:00,
2013-04-17 10:02:00,36.0,26.0,-100.00,ENE,71,8.0,12.0,66,0.00,,,0.00,112.000000,,2013-04-17 15:02:00,
2013-04-17 10:33:00,37.0,26.0,-100.00,NE,50,8.0,13.0,65,0.00,,,0.00,86.000000,,2013-04-17 15:33:00,
2013-04-17 10:43:00,37.0,26.0,-100.00,NE,50,8.0,13.0,65,0.00,,,0.00,86.000000,,2013-04-17 15:43:00,
2013-04-17 10:53:00,37.0,26.0,-100.00,NE,50,8.0,13.0,65,0.00,,,0.00,86.000000,,2013-04-17 15:53:00,
2013-04-17 11:03:00,37.0,26.0,-100.00,NE,50,8.0,13.0,65,0.00,,,0.00,86.000000,,2013-04-17 16:03:00,
2013-04-17 11:32:00,38.0,25.0,-100.00,ENE,58,7.0,14.0,60,0.00,,,0.00,187.000000,,2013-04-17 16:32:00,
2013-04-17 11:42:00,38.0,25.0,-100.00,ENE,58,7.0,14.0,60,0.00,,,0.00,187.000000,,2013-04-17 16:42:00,
2013-04-17 11:52:00,38.0,25.0,-100.00,ENE,58,7.0,14.0,60,0.00,,,0.00,187.000000,,2013-04-17 16:52:00,
2013-04-17 12:02:00,38.0,25.0,-100.00,ENE,58,7.0,14.0,60,0.00,,,0.00,187.000000,,2013-04-17 17:02:00,
2013-04-17 12:33:00,38.0,27.0,-100.00,East,81,6.0,14.0,64,0.00,,,0.00,86.000000,,2013-04-17 17:33:00,
2013-04-17 12:42:00,38.0,27.0,-100.00,East,81,6.0,14.0,64,0.00,,,0.00,86.000000,,2013-04-17 17:42:00,
2013-04-17 12:52:00,38.0,27.0,-100.00,East,81,6.0,14.0,64,0.00,,,0.00,86.000000,,2013-04-17 17:52:00,
2013-04-17 13:02:00,38.0,27.0,-100.00,East,81,6.0,14.0,64,0.00,,,0.00,86.000000,,2013-04-17 18:02:00,
2013-04-17 13:33:00,38.0,26.0,-100.00,ENE,60,8.0,12.0,62,0.00,,,0.00,113.000000,,2013-04-17 18:33:00,
2013-04-17 13:42:00,38.0,26.0,-100.00,ENE,60,8.0,12.0,62,0.00,,,0.00,113.000000,,2013-04-17 18:42:00,
2013-04-17 13:52:00,38.0,26.0,-100.00,ENE,60,8.0,12.0,62,0.00,,,0.00,113.000000,,2013-04-17 18:52:00,
2013-04-17 14:02:00,38.0,26.0,-100.00,ENE,60,8.0,12.0,62,0.00,,,0.00,113.000000,,2013-04-17 19:02:00,
2013-04-17 14:32:00,39.0,27.0,-100.00,NE,55,10.0,18.0,62,0.00,,,0.00,104.000000,,2013-04-17 19:32:00,
2013-04-17 14:42:00,39.0,27.0,-100.00,NE,55,10.0,18.0,62,0.00,,,0.00,104.000000,,2013-04-17 19:42:00,
2013-04-17 14:52:00,39.0,27.0,-100.00,NE,55,10.0,18.0,62,0.00,,,0.00,104.000000,,2013-04-17 19:52:00,
2013-04-17 15:02:00,39.0,27.0,-100.00,NE,55,10.0,18.0,62,0.00,,,0.00,104.000000,,2013-04-17 20:02:00,
2013-04-17 15:33:00,40.0,27.0,-100.00,NE,52,9.0,16.0,59,0.00,,,0.00,138.000000,,2013-04-17 20:33:00,
2013-04-17 15:42:00,40.0,27.0,-100.00,NE,52,9.0,16.0,59,0.00,,,0.00,138.000000,,2013-04-17 20:42:00,
2013-04-17 15:52:00,40.0,27.0,-100.00,NE,52,9.0,16.0,59,0.00,,,0.00,138.000000,,2013-04-17 20:52:00,
2013-04-17 16:02:00,40.0,27.0,-100.00,NE,52,9.0,16.0,59,0.00,,,0.00,138.000000,,2013-04-17 21:02:00,
2013-04-17 16:33:00,40.0,26.0,-100.00,NE,52,9.0,16.0,57,0.00,,,0.00,118.000000,,2013-04-17 21:33:00,
2013-04-17 16:43:00,40.0,26.0,-100.00,NE,52,9.0,16.0,57,0.00,,,0.00,118.000000,,2013-04-17 21:43:00,
2013-04-17 16:53:00,40.0,26.0,-100.00,NE,52,9.0,16.0,57,0.00,,,0.00,118.000000,,2013-04-17 21:53:00,
2013-04-17 17:02:00,40.0,26.0,-100.00,NE,52,9.0,16.0,57,0.00,,,0.00,118.000000,,2013-04-17 22:02:00,
2013-04-17 17:33:00,40.0,26.0,-100.00,NE,47,10.0,16.0,56,0.00,,,0.00,99.000000,,2013-04-17 22:33:00,
2013-04-17 17:43:00,40.0,26.0,-100.00,NE,47,10.0,16.0,56,0.00,,,0.00,99.000000,,2013-04-17 22:43:00,
2013-04-17 17:53:00,40.0,26.0,-100.00,NE,47,10.0,16.0,56,0.00,,,0.00,99.000000,,2013-04-17 22:53:00,
2013-04-17 18:02:00,40.0,26.0,-100.00,NE,47,10.0,16.0,56,0.00,,,0.00,99.000000,,2013-04-17 23:02:00,
2013-04-17 18:32:00,40.0,26.0,-100.00,NE,34,9.0,16.0,58,0.00,,,0.00,91.000000,,2013-04-17 23:32:00,
2013-04-17 18:42:00,40.0,26.0,-100.00,NE,34,9.0,16.0,58,0.00,,,0.00,91.000000,,2013-04-17 23:42:00,
2013-04-17 18:52:00,40.0,26.0,-100.00,NE,34,9.0,16.0,58,0.00,,,0.00,91.000000,,2013-04-17 23:52:00,
2013-04-17 19:02:00,40.0,26.0,-100.00,NE,34,9.0,16.0,58,0.00,,,0.00,91.000000,,2013-04-18 00:02:00,
2013-04-17 19:32:00,38.0,27.0,-100.00,NE,41,10.0,17.0,65,0.00,,,0.00,28.000000,,2013-04-18 00:32:00,
2013-04-17 19:42:00,38.0,27.0,-100.00,NE,41,10.0,17.0,65,0.00,,,0.00,28.000000,,2013-04-18 00:42:00,
2013-04-17 19:52:00,38.0,27.0,-100.00,NE,41,10.0,17.0,65,0.00,,,0.00,28.000000,,2013-04-18 00:52:00,
2013-04-17 20:02:00,38.0,27.0,-100.00,NE,41,10.0,17.0,65,0.00,,,0.00,28.000000,,2013-04-18 01:02:00,
2013-04-17 20:32:00,34.0,32.0,-100.00,NE,38,8.0,18.0,91,0.01,,,0.01,4.000000,,2013-04-18 01:32:00,
2013-04-17 20:42:00,34.0,32.0,-100.00,NE,38,8.0,18.0,91,0.01,,,0.01,4.000000,,2013-04-18 01:42:00,
2013-04-17 20:52:00,34.0,32.0,-100.00,NE,38,8.0,18.0,91,0.01,,,0.01,4.000000,,2013-04-18 01:52:00,
2013-04-17 21:02:00,34.0,32.0,-100.00,NE,38,8.0,18.0,91,0.01,,,0.01,4.000000,,2013-04-18 02:02:00,
2013-04-17 21:32:00,34.0,32.0,-100.00,NE,49,8.0,20.0,93,0.00,,,0.01,0.000000,,2013-04-18 02:32:00,
2013-04-17 21:42:00,34.0,32.0,-100.00,NE,49,8.0,20.0,93,0.00,,,0.01,0.000000,,2013-04-18 02:42:00,
2013-04-17 21:52:00,34.0,32.0,-100.00,NE,49,8.0,20.0,93,0.00,,,0.01,0.000000,,2013-04-18 02:52:00,
2013-04-17 22:02:00,34.0,32.0,-100.00,NE,49,8.0,20.0,93,0.00,,,0.01,0.000000,,2013-04-18 03:02:00,
2013-04-17 22:33:00,33.0,32.0,-100.00,NE,41,7.0,16.0,96,0.10,,,0.11,0.000000,,2013-04-18 03:33:00,
2013-04-17 22:43:00,33.0,32.0,-100.00,NE,41,7.0,16.0,96,0.10,,,0.11,0.000000,,2013-04-18 03:43:00,
2013-04-17 22:53:00,33.0,32.0,-100.00,NE,41,7.0,16.0,96,0.10,,,0.11,0.000000,,2013-04-18 03:53:00,
2013-04-17 23:03:00,33.0,32.0,-100.00,NE,41,7.0,16.0,96,0.10,,,0.11,0.000000,,2013-04-18 04:03:00,
2013-04-17 23:33:00,32.0,31.0,-100.00,NE,43,10.0,17.0,97,0.08,,,0.19,0.000000,,2013-04-18 04:33:00,
2013-04-17 23:43:00,32.0,31.0,-100.00,NE,43,10.0,17.0,97,0.08,,,0.19,0.000000,,2013-04-18 04:43:00,
2013-04-17 23:53:00,32.0,31.0,-100.00,NE,43,10.0,17.0,97,0.08,,,0.19,0.000000,,2013-04-18 04:53:00,